Location: Poughquag
(41.6090°N, 73.6820°W)
Time: 08:16:01
(UTC-05:00)

Altair - Pass Details

Date: 29 November 2023
Orbit: 1501 x 1682 km, 47.2° (Epoch: 02 March)

Event Time Altitude Azimuth Distance (km) Brightness Sun altitude
Rises 14:40:42 0° 294° (WNW) 4,683 10.3 14.7°
Reaches altitude 10° 14:43:46 10° 295° (WNW) 3,684 9.8 14.3°
Maximum altitude 14:53:03 87° 26° (NNE) 1,507 7.7 13.1°
Drops below altitude 10° 15:02:15 10° 116° (ESE) 3,656 9.3 11.8°
Sets 15:05:17 0° 117° (ESE) 4,646 9.8 11.4°
